English version Home page |
Updated on February 10, 2013 |
プロフィール
|
軌道要素Epoch 2002 Sept. 3.0 TT = JDT 2452520.5 T 2002 Sept. 10.75398 TT MPC q 2.4249455 (2000.0) P Q n 0.13627978 Peri. 20.46222 +0.03842733 +0.96343254 a 3.7398005 Node 252.49414 -0.95112276 -0.04611042 e 0.3515843 Incl. 16.14441 -0.30641285 +0.26395372 P 7.23
|
光度変化H = 15.0 G = 0.15
|
軌道要素はM.P.E.C. 2010-L93に掲載されたものです。
|